owner,sensor,date,latitude,longitude,air_pressure(mBar),qcFlag 
NDBC,ioos:station:NOAA.NDBC:BURL1:1,2019-07-01T00:00:00Z,28.9060,-89.4290,1016.9,11111222 
NDBC,ioos:station:NOAA.NDBC:BURL1:1,2019-07-01T01:00:00Z,28.9060,-89.4290,1017.1,11111222 
NDBC,ioos:station:NOAA.NDBC:BURL1:1,2019-07-01T02:00:00Z,28.9060,-89.4290,1017.6,11111222 
NDBC,ioos:station:NOAA.NDBC:BURL1:1,2019-07-01T03:00:00Z,28.9060,-89.4290,1018.0,11111222 
NDBC,ioos:station:NOAA.NDBC:BURL1:1,2019-07-01T04:00:00Z,28.9060,-89.4290,1018.6,11111222 
NDBC,ioos:station:NOAA.NDBC:BURL1:1,2019-07-01T05:00:00Z,28.9060,-89.4290,1018.9,11111222 
NDBC,ioos:station:NOAA.NDBC:BURL1:1,2019-07-01T06:00:00Z,28.9060,-89.4290,1018.8,11111222 
NDBC,ioos:station:NOAA.NDBC:BURL1:1,2019-07-01T07:00:00Z,28.9060,-89.4290,1018.5,11111222 
NDBC,ioos:station:NOAA.NDBC:BURL1:1,2019-07-01T08:00:00Z,28.9060,-89.4290,1018.4,11111222 
NDBC,ioos:station:NOAA.NDBC:BURL1:1,2019-07-01T09:00:00Z,28.9060,-89.4290,1018.1,11111222 
NDBC,ioos:station:NOAA.NDBC:BURL1:1,2019-07-01T10:00:00Z,28.9060,-89.4290,1018.1,11111222 
NDBC,ioos:station:NOAA.NDBC:BURL1:1,2019-07-01T11:00:00Z,28.9060,-89.4290,1018.2,11111222 
NDBC,ioos:station:NOAA.NDBC:BURL1:1,2019-07-01T12:00:00Z,28.9060,-89.4290,1018.5,11111222 
NDBC,ioos:station:NOAA.NDBC:BURL1:1,2019-07-01T13:00:00Z,28.9060,-89.4290,1018.3,11111222 
NDBC,ioos:station:NOAA.NDBC:BURL1:1,2019-07-01T16:00:00Z,28.9060,-89.4290,1019.5,11111222 
NDBC,ioos:station:NOAA.NDBC:BURL1:1,2019-07-01T17:00:00Z,28.9060,-89.4290,1019.5,11111222 
NDBC,ioos:station:NOAA.NDBC:BURL1:1,2019-07-01T18:00:00Z,28.9060,-89.4290,1019.3,11111222 
NDBC,ioos:station:NOAA.NDBC:BURL1:1,2019-07-01T19:00:00Z,28.9060,-89.4290,1018.9,11111222 
NDBC,ioos:station:NOAA.NDBC:BURL1:1,2019-07-01T20:00:00Z,28.9060,-89.4290,1018.6,11111222 
NDBC,ioos:station:NOAA.NDBC:BURL1:1,2019-07-01T21:00:00Z,28.9060,-89.4290,1018.8,11111222 
NDBC,ioos:station:NOAA.NDBC:BURL1:1,2019-07-01T22:00:00Z,28.9060,-89.4290,1018.5,11111222 
NDBC,ioos:station:NOAA.NDBC:BURL1:1,2019-07-01T23:00:00Z,28.9060,-89.4290,1018.0,11111222 
NDBC,ioos:station:NOAA.NDBC:BURL1:1,2019-07-02T00:00:00Z,28.9060,-89.4290,1017.7,11111222 
NDBC,ioos:station:NOAA.NDBC:BURL1:1,2019-07-02T01:00:00Z,28.9060,-89.4290,1018.0,11111222 
NDBC,ioos:station:NOAA.NDBC:BURL1:1,2019-07-02T02:00:00Z,28.9060,-89.4290,1017.9,11111222 
NDBC,ioos:station:NOAA.NDBC:BURL1:1,2019-07-02T03:00:00Z,28.9060,-89.4290,1018.1,11111222 
NDBC,ioos:station:NOAA.NDBC:BURL1:1,2019-07-02T04:00:00Z,28.9060,-89.4290,1018.3,11111222 
NDBC,ioos:station:NOAA.NDBC:BURL1:1,2019-07-02T05:00:00Z,28.9060,-89.4290,1018.0,11111222 
NDBC,ioos:station:NOAA.NDBC:BURL1:1,2019-07-02T06:00:00Z,28.9060,-89.4290,1017.5,11111222 
NDBC,ioos:station:NOAA.NDBC:BURL1:1,2019-07-02T07:00:00Z,28.9060,-89.4290,1017.5,11111222 
NDBC,ioos:station:NOAA.NDBC:BURL1:1,2019-07-02T08:00:00Z,28.9060,-89.4290,1017.0,11111222 
NDBC,ioos:station:NOAA.NDBC:BURL1:1,2019-07-02T09:00:00Z,28.9060,-89.4290,1017.2,11111222 
NDBC,ioos:station:NOAA.NDBC:BURL1:1,2019-07-02T10:00:00Z,28.9060,-89.4290,1017.3,11111222 
NDBC,ioos:station:NOAA.NDBC:BURL1:1,2019-07-02T11:00:00Z,28.9060,-89.4290,1018.1,11111222 
NDBC,ioos:station:NOAA.NDBC:BURL1:1,2019-07-02T12:00:00Z,28.9060,-89.4290,1018.4,11111222 
NDBC,ioos:station:NOAA.NDBC:BURL1:1,2019-07-02T13:00:00Z,28.9060,-89.4290,1018.8,11111222 
NDBC,ioos:station:NOAA.NDBC:BURL1:1,2019-07-02T14:00:00Z,28.9060,-89.4290,1019.2,11111222 
NDBC,ioos:station:NOAA.NDBC:BURL1:1,2019-07-02T15:00:00Z,28.9060,-89.4290,1018.9,11111222 
NDBC,ioos:station:NOAA.NDBC:BURL1:1,2019-07-02T16:00:00Z,28.9060,-89.4290,1018.9,11111222 
NDBC,ioos:station:NOAA.NDBC:BURL1:1,2019-07-02T17:00:00Z,28.9060,-89.4290,1018.7,11111222 
NDBC,ioos:station:NOAA.NDBC:BURL1:1,2019-07-02T18:00:00Z,28.9060,-89.4290,1018.5,11111222 
NDBC,ioos:station:NOAA.NDBC:BURL1:1,2019-07-02T19:00:00Z,28.9060,-89.4290,1018.5,11111222 
NDBC,ioos:station:NOAA.NDBC:BURL1:1,2019-07-02T20:00:00Z,28.9060,-89.4290,1017.8,11111222 
NDBC,ioos:station:NOAA.NDBC:BURL1:1,2019-07-02T21:00:00Z,28.9060,-89.4290,1017.3,11111222 
NDBC,ioos:station:NOAA.NDBC:BURL1:1,2019-07-02T22:00:00Z,28.9060,-89.4290,1016.2,11111222 
NDBC,ioos:station:NOAA.NDBC:BURL1:1,2019-07-02T23:00:00Z,28.9060,-89.4290,1016.0,11111222 
NDBC,ioos:station:NOAA.NDBC:BURL1:1,2019-07-03T00:00:00Z,28.9060,-89.4290,1016.0,11111222 
NDBC,ioos:station:NOAA.NDBC:BURL1:1,2019-07-03T01:00:00Z,28.9060,-89.4290,1016.9,11111222 
NDBC,ioos:station:NOAA.NDBC:BURL1:1,2019-07-03T02:00:00Z,28.9060,-89.4290,1017.1,11111222 
NDBC,ioos:station:NOAA.NDBC:BURL1:1,2019-07-03T03:00:00Z,28.9060,-89.4290,1017.5,11111222 
NDBC,ioos:station:NOAA.NDBC:BURL1:1,2019-07-03T04:00:00Z,28.9060,-89.4290,1017.1,11111222 
NDBC,ioos:station:NOAA.NDBC:BURL1:1,2019-07-03T05:00:00Z,28.9060,-89.4290,1016.7,11111222 
NDBC,ioos:station:NOAA.NDBC:BURL1:1,2019-07-03T06:00:00Z,28.9060,-89.4290,1015.6,11111222 
NDBC,ioos:station:NOAA.NDBC:BURL1:1,2019-07-03T07:00:00Z,28.9060,-89.4290,1014.5,11111222 
NDBC,ioos:station:NOAA.NDBC:BURL1:1,2019-07-03T08:00:00Z,28.9060,-89.4290,1014.6,11111222 
NDBC,ioos:station:NOAA.NDBC:BURL1:1,2019-07-03T09:00:00Z,28.9060,-89.4290,1015.2,11111222 
NDBC,ioos:station:NOAA.NDBC:BURL1:1,2019-07-03T10:00:00Z,28.9060,-89.4290,1015.9,11111222 
NDBC,ioos:station:NOAA.NDBC:BURL1:1,2019-07-03T11:00:00Z,28.9060,-89.4290,1016.6,11111222 
NDBC,ioos:station:NOAA.NDBC:BURL1:1,2019-07-03T12:00:00Z,28.9060,-89.4290,1017.1,11111222 
NDBC,ioos:station:NOAA.NDBC:BURL1:1,2019-07-03T13:00:00Z,28.9060,-89.4290,1017.9,11111222 
NDBC,ioos:station:NOAA.NDBC:BURL1:1,2019-07-03T14:00:00Z,28.9060,-89.4290,1018.1,11111222 
NDBC,ioos:station:NOAA.NDBC:BURL1:1,2019-07-03T16:00:00Z,28.9060,-89.4290,1018.5,11111222 
NDBC,ioos:station:NOAA.NDBC:BURL1:1,2019-07-03T17:00:00Z,28.9060,-89.4290,1018.4,11111222 
NDBC,ioos:station:NOAA.NDBC:BURL1:1,2019-07-03T18:00:00Z,28.9060,-89.4290,1018.1,11111222 
NDBC,ioos:station:NOAA.NDBC:BURL1:1,2019-07-03T19:00:00Z,28.9060,-89.4290,1017.7,11111222 
NDBC,ioos:station:NOAA.NDBC:BURL1:1,2019-07-03T21:00:00Z,28.9060,-89.4290,1016.3,11111222 
NDBC,ioos:station:NOAA.NDBC:BURL1:1,2019-07-03T22:00:00Z,28.9060,-89.4290,1015.6,11111222 
NDBC,ioos:station:NOAA.NDBC:BURL1:1,2019-07-03T23:00:00Z,28.9060,-89.4290,1015.5,11111222 
NDBC,ioos:station:NOAA.NDBC:BURL1:1,2019-07-04T00:00:00Z,28.9060,-89.4290,1015.6,11111222 
NDBC,ioos:station:NOAA.NDBC:BURL1:1,2019-07-04T01:00:00Z,28.9060,-89.4290,1015.7,11111222 
NDBC,ioos:station:NOAA.NDBC:BURL1:1,2019-07-04T02:00:00Z,28.9060,-89.4290,1015.8,11111222 
NDBC,ioos:station:NOAA.NDBC:BURL1:1,2019-07-04T03:00:00Z,28.9060,-89.4290,1016.5,11111222 
NDBC,ioos:station:NOAA.NDBC:BURL1:1,2019-07-04T04:00:00Z,28.9060,-89.4290,1016.8,11111222 
NDBC,ioos:station:NOAA.NDBC:BURL1:1,2019-07-04T06:00:00Z,28.9060,-89.4290,1016.7,11111222 
NDBC,ioos:station:NOAA.NDBC:BURL1:1,2019-07-04T07:00:00Z,28.9060,-89.4290,1016.3,11111222 
NDBC,ioos:station:NOAA.NDBC:BURL1:1,2019-07-04T08:00:00Z,28.9060,-89.4290,1016.1,11111222 
NDBC,ioos:station:NOAA.NDBC:BURL1:1,2019-07-04T09:00:00Z,28.9060,-89.4290,1016.1,11111222 
NDBC,ioos:station:NOAA.NDBC:BURL1:1,2019-07-04T10:00:00Z,28.9060,-89.4290,1016.2,11111222 
NDBC,ioos:station:NOAA.NDBC:BURL1:1,2019-07-04T11:00:00Z,28.9060,-89.4290,1016.6,11111222 
NDBC,ioos:station:NOAA.NDBC:BURL1:1,2019-07-04T12:00:00Z,28.9060,-89.4290,1016.9,11111222 
NDBC,ioos:station:NOAA.NDBC:BURL1:1,2019-07-04T13:00:00Z,28.9060,-89.4290,1017.5,11111222 
NDBC,ioos:station:NOAA.NDBC:BURL1:1,2019-07-04T14:00:00Z,28.9060,-89.4290,1017.7,11111222 
NDBC,ioos:station:NOAA.NDBC:BURL1:1,2019-07-04T15:00:00Z,28.9060,-89.4290,1017.9,11111222 
NDBC,ioos:station:NOAA.NDBC:BURL1:1,2019-07-04T17:00:00Z,28.9060,-89.4290,1019.0,11111222 
NDBC,ioos:station:NOAA.NDBC:BURL1:1,2019-07-04T18:00:00Z,28.9060,-89.4290,1019.0,11111222 
NDBC,ioos:station:NOAA.NDBC:BURL1:1,2019-07-04T19:00:00Z,28.9060,-89.4290,1018.8,11111222 
NDBC,ioos:station:NOAA.NDBC:BURL1:1,2019-07-04T20:00:00Z,28.9060,-89.4290,1018.3,11111222 
NDBC,ioos:station:NOAA.NDBC:BURL1:1,2019-07-04T21:00:00Z,28.9060,-89.4290,1017.7,11111222 
NDBC,ioos:station:NOAA.NDBC:BURL1:1,2019-07-04T22:00:00Z,28.9060,-89.4290,1017.2,11111222 
NDBC,ioos:station:NOAA.NDBC:BURL1:1,2019-07-04T23:00:00Z,28.9060,-89.4290,1016.8,11111222 
NDBC,ioos:station:NOAA.NDBC:BURL1:1,2019-07-05T00:00:00Z,28.9060,-89.4290,1016.7,11111222 
NDBC,ioos:station:NOAA.NDBC:BURL1:1,2019-07-05T01:00:00Z,28.9060,-89.4290,1017.1,11111222 
NDBC,ioos:station:NOAA.NDBC:BURL1:1,2019-07-05T02:00:00Z,28.9060,-89.4290,1017.4,11111222 
NDBC,ioos:station:NOAA.NDBC:BURL1:1,2019-07-05T03:00:00Z,28.9060,-89.4290,1017.7,11111222 
NDBC,ioos:station:NOAA.NDBC:BURL1:1,2019-07-05T04:00:00Z,28.9060,-89.4290,1018.0,11111222 
NDBC,ioos:station:NOAA.NDBC:BURL1:1,2019-07-05T05:00:00Z,28.9060,-89.4290,1018.3,11111222 
NDBC,ioos:station:NOAA.NDBC:BURL1:1,2019-07-05T06:00:00Z,28.9060,-89.4290,1018.2,11111222 
NDBC,ioos:station:NOAA.NDBC:BURL1:1,2019-07-05T07:00:00Z,28.9060,-89.4290,1017.8,11111222 
NDBC,ioos:station:NOAA.NDBC:BURL1:1,2019-07-05T08:00:00Z,28.9060,-89.4290,1017.5,11111222 
NDBC,ioos:station:NOAA.NDBC:BURL1:1,2019-07-05T10:00:00Z,28.9060,-89.4290,1017.6,11111222 
NDBC,ioos:station:NOAA.NDBC:BURL1:1,2019-07-05T11:00:00Z,28.9060,-89.4290,1017.9,11111222 
NDBC,ioos:station:NOAA.NDBC:BURL1:1,2019-07-05T12:00:00Z,28.9060,-89.4290,1018.3,11111222 
NDBC,ioos:station:NOAA.NDBC:BURL1:1,2019-07-05T13:00:00Z,28.9060,-89.4290,1019.0,11111222 
NDBC,ioos:station:NOAA.NDBC:BURL1:1,2019-07-05T14:00:00Z,28.9060,-89.4290,1019.6,11111222 
NDBC,ioos:station:NOAA.NDBC:BURL1:1,2019-07-05T15:00:00Z,28.9060,-89.4290,1019.8,11111222 
NDBC,ioos:station:NOAA.NDBC:BURL1:1,2019-07-05T16:00:00Z,28.9060,-89.4290,1020.2,11111222 
NDBC,ioos:station:NOAA.NDBC:BURL1:1,2019-07-05T17:00:00Z,28.9060,-89.4290,1020.3,11111222 
NDBC,ioos:station:NOAA.NDBC:BURL1:1,2019-07-05T18:00:00Z,28.9060,-89.4290,1020.3,11111222 
NDBC,ioos:station:NOAA.NDBC:BURL1:1,2019-07-05T19:00:00Z,28.9060,-89.4290,1020.1,11111222 
NDBC,ioos:station:NOAA.NDBC:BURL1:1,2019-07-05T20:00:00Z,28.9060,-89.4290,1019.4,11111222 
NDBC,ioos:station:NOAA.NDBC:BURL1:1,2019-07-05T22:00:00Z,28.9060,-89.4290,1018.2,11111222 
NDBC,ioos:station:NOAA.NDBC:BURL1:1,2019-07-05T23:00:00Z,28.9060,-89.4290,1018.0,11111222 
NDBC,ioos:station:NOAA.NDBC:BURL1:1,2019-07-06T00:00:00Z,28.9060,-89.4290,1018.1,11111222 
NDBC,ioos:station:NOAA.NDBC:BURL1:1,2019-07-06T01:00:00Z,28.9060,-89.4290,1018.4,11111222 
NDBC,ioos:station:NOAA.NDBC:BURL1:1,2019-07-06T02:00:00Z,28.9060,-89.4290,1018.9,11111222 
NDBC,ioos:station:NOAA.NDBC:BURL1:1,2019-07-06T04:00:00Z,28.9060,-89.4290,1019.4,11111222 
NDBC,ioos:station:NOAA.NDBC:BURL1:1,2019-07-06T06:00:00Z,28.9060,-89.4290,1018.8,11111222 
NDBC,ioos:station:NOAA.NDBC:BURL1:1,2019-07-06T07:00:00Z,28.9060,-89.4290,1018.1,11111222 
NDBC,ioos:station:NOAA.NDBC:BURL1:1,2019-07-06T08:00:00Z,28.9060,-89.4290,1018.0,11111222 
NDBC,ioos:station:NOAA.NDBC:BURL1:1,2019-07-06T09:00:00Z,28.9060,-89.4290,1017.9,11111222 
NDBC,ioos:station:NOAA.NDBC:BURL1:1,2019-07-06T10:00:00Z,28.9060,-89.4290,1017.9,11111222 
NDBC,ioos:station:NOAA.NDBC:BURL1:1,2019-07-06T11:00:00Z,28.9060,-89.4290,1018.5,11111222 
NDBC,ioos:station:NOAA.NDBC:BURL1:1,2019-07-06T12:00:00Z,28.9060,-89.4290,1019.1,11111222 
NDBC,ioos:station:NOAA.NDBC:BURL1:1,2019-07-06T13:00:00Z,28.9060,-89.4290,1019.5,11111222 
NDBC,ioos:station:NOAA.NDBC:BURL1:1,2019-07-06T14:00:00Z,28.9060,-89.4290,1019.3,11111222 
NDBC,ioos:station:NOAA.NDBC:BURL1:1,2019-07-06T15:00:00Z,28.9060,-89.4290,1019.6,11111222 
NDBC,ioos:station:NOAA.NDBC:BURL1:1,2019-07-06T16:00:00Z,28.9060,-89.4290,1019.8,11111222 
NDBC,ioos:station:NOAA.NDBC:BURL1:1,2019-07-06T17:00:00Z,28.9060,-89.4290,1019.7,11111222 
NDBC,ioos:station:NOAA.NDBC:BURL1:1,2019-07-06T18:00:00Z,28.9060,-89.4290,1019.4,11111222 
NDBC,ioos:station:NOAA.NDBC:BURL1:1,2019-07-06T19:00:00Z,28.9060,-89.4290,1018.8,11111222 
NDBC,ioos:station:NOAA.NDBC:BURL1:1,2019-07-06T20:00:00Z,28.9060,-89.4290,1018.8,11111222 
NDBC,ioos:station:NOAA.NDBC:BURL1:1,2019-07-06T21:00:00Z,28.9060,-89.4290,1018.0,11111222 
NDBC,ioos:station:NOAA.NDBC:BURL1:1,2019-07-06T22:00:00Z,28.9060,-89.4290,1017.6,11111222 
NDBC,ioos:station:NOAA.NDBC:BURL1:1,2019-07-06T23:00:00Z,28.9060,-89.4290,1017.2,11111222 
NDBC,ioos:station:NOAA.NDBC:BURL1:1,2019-07-07T00:00:00Z,28.9060,-89.4290,1017.2,11111222 
NDBC,ioos:station:NOAA.NDBC:BURL1:1,2019-07-07T01:00:00Z,28.9060,-89.4290,1016.8,11111222 
NDBC,ioos:station:NOAA.NDBC:BURL1:1,2019-07-07T02:00:00Z,28.9060,-89.4290,1017.3,11111222 
NDBC,ioos:station:NOAA.NDBC:BURL1:1,2019-07-07T03:00:00Z,28.9060,-89.4290,1018.3,11111222 
NDBC,ioos:station:NOAA.NDBC:BURL1:1,2019-07-07T04:00:00Z,28.9060,-89.4290,1018.3,11111222 
NDBC,ioos:station:NOAA.NDBC:BURL1:1,2019-07-07T05:00:00Z,28.9060,-89.4290,1017.9,11111222 
NDBC,ioos:station:NOAA.NDBC:BURL1:1,2019-07-07T06:00:00Z,28.9060,-89.4290,1017.4,11111222 
NDBC,ioos:station:NOAA.NDBC:BURL1:1,2019-07-07T07:00:00Z,28.9060,-89.4290,1016.6,11111222 
NDBC,ioos:station:NOAA.NDBC:BURL1:1,2019-07-07T08:00:00Z,28.9060,-89.4290,1016.5,11111222 
NDBC,ioos:station:NOAA.NDBC:BURL1:1,2019-07-07T09:00:00Z,28.9060,-89.4290,1016.5,11111222 
NDBC,ioos:station:NOAA.NDBC:BURL1:1,2019-07-07T10:00:00Z,28.9060,-89.4290,1016.8,11111222 
NDBC,ioos:station:NOAA.NDBC:BURL1:1,2019-07-07T11:00:00Z,28.9060,-89.4290,1017.0,11111222 
NDBC,ioos:station:NOAA.NDBC:BURL1:1,2019-07-07T12:00:00Z,28.9060,-89.4290,1017.5,11111222 
NDBC,ioos:station:NOAA.NDBC:BURL1:1,2019-07-07T13:00:00Z,28.9060,-89.4290,1017.9,11111222 
NDBC,ioos:station:NOAA.NDBC:BURL1:1,2019-07-07T14:00:00Z,28.9060,-89.4290,1017.9,11111222 
NDBC,ioos:station:NOAA.NDBC:BURL1:1,2019-07-07T15:00:00Z,28.9060,-89.4290,1018.0,11111222 
NDBC,ioos:station:NOAA.NDBC:BURL1:1,2019-07-07T16:00:00Z,28.9060,-89.4290,1018.3,11111222 
NDBC,ioos:station:NOAA.NDBC:BURL1:1,2019-07-07T17:00:00Z,28.9060,-89.4290,1018.1,11111222 
NDBC,ioos:station:NOAA.NDBC:BURL1:1,2019-07-07T18:00:00Z,28.9060,-89.4290,1017.8,11111222 
NDBC,ioos:station:NOAA.NDBC:BURL1:1,2019-07-07T20:00:00Z,28.9060,-89.4290,1016.9,11111222 
NDBC,ioos:station:NOAA.NDBC:BURL1:1,2019-07-07T21:00:00Z,28.9060,-89.4290,1016.3,11111222 
NDBC,ioos:station:NOAA.NDBC:BURL1:1,2019-07-07T22:00:00Z,28.9060,-89.4290,1015.6,11111222 
NDBC,ioos:station:NOAA.NDBC:BURL1:1,2019-07-07T23:00:00Z,28.9060,-89.4290,1015.6,11111222 
NDBC,ioos:station:NOAA.NDBC:BURL1:1,2019-07-08T00:00:00Z,28.9060,-89.4290,1015.4,11111222 
NDBC,ioos:station:NOAA.NDBC:BURL1:1,2019-07-08T01:00:00Z,28.9060,-89.4290,1015.6,11111222 
NDBC,ioos:station:NOAA.NDBC:BURL1:1,2019-07-08T02:00:00Z,28.9060,-89.4290,1015.4,11111222 
NDBC,ioos:station:NOAA.NDBC:BURL1:1,2019-07-08T03:00:00Z,28.9060,-89.4290,1015.2,11111222 
NDBC,ioos:station:NOAA.NDBC:BURL1:1,2019-07-08T04:00:00Z,28.9060,-89.4290,1015.4,11111222 
NDBC,ioos:station:NOAA.NDBC:BURL1:1,2019-07-08T06:00:00Z,28.9060,-89.4290,1015.6,11111222 
NDBC,ioos:station:NOAA.NDBC:BURL1:1,2019-07-08T07:00:00Z,28.9060,-89.4290,1014.9,11111222 
NDBC,ioos:station:NOAA.NDBC:BURL1:1,2019-07-08T08:00:00Z,28.9060,-89.4290,1014.8,11111222 
NDBC,ioos:station:NOAA.NDBC:BURL1:1,2019-07-08T09:00:00Z,28.9060,-89.4290,1014.5,11111222 
NDBC,ioos:station:NOAA.NDBC:BURL1:1,2019-07-08T10:00:00Z,28.9060,-89.4290,1014.5,11111222 
NDBC,ioos:station:NOAA.NDBC:BURL1:1,2019-07-08T11:00:00Z,28.9060,-89.4290,1015.0,11111222 
NDBC,ioos:station:NOAA.NDBC:BURL1:1,2019-07-08T12:00:00Z,28.9060,-89.4290,1015.4,11111222 
NDBC,ioos:station:NOAA.NDBC:BURL1:1,2019-07-08T14:00:00Z,28.9060,-89.4290,1016.5,11111222 
NDBC,ioos:station:NOAA.NDBC:BURL1:1,2019-07-08T15:00:00Z,28.9060,-89.4290,1016.7,11111222 
NDBC,ioos:station:NOAA.NDBC:BURL1:1,2019-07-08T16:00:00Z,28.9060,-89.4290,1017.0,11111222 
NDBC,ioos:station:NOAA.NDBC:BURL1:1,2019-07-08T18:00:00Z,28.9060,-89.4290,1016.3,11111222 
NDBC,ioos:station:NOAA.NDBC:BURL1:1,2019-07-08T19:00:00Z,28.9060,-89.4290,1015.6,11111222 
NDBC,ioos:station:NOAA.NDBC:BURL1:1,2019-07-08T20:00:00Z,28.9060,-89.4290,1015.1,11111222 
NDBC,ioos:station:NOAA.NDBC:BURL1:1,2019-07-08T22:00:00Z,28.9060,-89.4290,1013.9,11111222 
NDBC,ioos:station:NOAA.NDBC:BURL1:1,2019-07-08T23:00:00Z,28.9060,-89.4290,1013.5,11111222 
NDBC,ioos:station:NOAA.NDBC:BURL1:1,2019-07-09T00:00:00Z,28.9060,-89.4290,1013.7,11111222 
NDBC,ioos:station:NOAA.NDBC:BURL1:1,2019-07-09T01:00:00Z,28.9060,-89.4290,1014.0,11111222 
NDBC,ioos:station:NOAA.NDBC:BURL1:1,2019-07-09T02:00:00Z,28.9060,-89.4290,1014.4,11111222 
NDBC,ioos:station:NOAA.NDBC:BURL1:1,2019-07-09T03:00:00Z,28.9060,-89.4290,1014.6,11111222 
NDBC,ioos:station:NOAA.NDBC:BURL1:1,2019-07-09T04:00:00Z,28.9060,-89.4290,1014.9,11111222 
NDBC,ioos:station:NOAA.NDBC:BURL1:1,2019-07-09T05:00:00Z,28.9060,-89.4290,1015.0,11111222 
NDBC,ioos:station:NOAA.NDBC:BURL1:1,2019-07-09T06:00:00Z,28.9060,-89.4290,1014.8,11111222 
NDBC,ioos:station:NOAA.NDBC:BURL1:1,2019-07-09T07:00:00Z,28.9060,-89.4290,1014.5,11111222 
NDBC,ioos:station:NOAA.NDBC:BURL1:1,2019-07-09T08:00:00Z,28.9060,-89.4290,1013.8,11111222 
NDBC,ioos:station:NOAA.NDBC:BURL1:1,2019-07-09T09:00:00Z,28.9060,-89.4290,1013.9,11111222 
NDBC,ioos:station:NOAA.NDBC:BURL1:1,2019-07-09T10:00:00Z,28.9060,-89.4290,1014.0,11111222 
NDBC,ioos:station:NOAA.NDBC:BURL1:1,2019-07-09T11:00:00Z,28.9060,-89.4290,1015.2,11111222 
NDBC,ioos:station:NOAA.NDBC:BURL1:1,2019-07-09T12:00:00Z,28.9060,-89.4290,1015.5,11111222 
NDBC,ioos:station:NOAA.NDBC:BURL1:1,2019-07-09T13:00:00Z,28.9060,-89.4290,1016.2,11111222 
NDBC,ioos:station:NOAA.NDBC:BURL1:1,2019-07-09T14:00:00Z,28.9060,-89.4290,1016.1,11111222 
NDBC,ioos:station:NOAA.NDBC:BURL1:1,2019-07-09T15:00:00Z,28.9060,-89.4290,1016.4,11111222 
NDBC,ioos:station:NOAA.NDBC:BURL1:1,2019-07-09T17:00:00Z,28.9060,-89.4290,1017.0,11111222 
NDBC,ioos:station:NOAA.NDBC:BURL1:1,2019-07-09T18:00:00Z,28.9060,-89.4290,1016.8,11111222 
NDBC,ioos:station:NOAA.NDBC:BURL1:1,2019-07-09T19:00:00Z,28.9060,-89.4290,1015.9,11111222 
NDBC,ioos:station:NOAA.NDBC:BURL1:1,2019-07-09T20:00:00Z,28.9060,-89.4290,1015.2,11111222 
NDBC,ioos:station:NOAA.NDBC:BURL1:1,2019-07-09T21:00:00Z,28.9060,-89.4290,1014.7,11111222 
NDBC,ioos:station:NOAA.NDBC:BURL1:1,2019-07-09T22:00:00Z,28.9060,-89.4290,1013.8,11111222 
NDBC,ioos:station:NOAA.NDBC:BURL1:1,2019-07-09T23:00:00Z,28.9060,-89.4290,1013.7,11111222 
NDBC,ioos:station:NOAA.NDBC:BURL1:1,2019-07-10T00:00:00Z,28.9060,-89.4290,1013.9,11111222 
NDBC,ioos:station:NOAA.NDBC:BURL1:1,2019-07-10T01:00:00Z,28.9060,-89.4290,1014.1,11111222 
NDBC,ioos:station:NOAA.NDBC:BURL1:1,2019-07-10T02:00:00Z,28.9060,-89.4290,1014.8,11111222 
NDBC,ioos:station:NOAA.NDBC:BURL1:1,2019-07-10T04:00:00Z,28.9060,-89.4290,1015.5,11111222 
NDBC,ioos:station:NOAA.NDBC:BURL1:1,2019-07-10T06:00:00Z,28.9060,-89.4290,1013.9,11111222 
NDBC,ioos:station:NOAA.NDBC:BURL1:1,2019-07-10T07:00:00Z,28.9060,-89.4290,1013.9,11111222 
NDBC,ioos:station:NOAA.NDBC:BURL1:1,2019-07-10T08:00:00Z,28.9060,-89.4290,1013.2,11111222 
NDBC,ioos:station:NOAA.NDBC:BURL1:1,2019-07-10T09:00:00Z,28.9060,-89.4290,1013.1,11111222 
NDBC,ioos:station:NOAA.NDBC:BURL1:1,2019-07-10T10:00:00Z,28.9060,-89.4290,1012.9,11111222 
NDBC,ioos:station:NOAA.NDBC:BURL1:1,2019-07-10T11:00:00Z,28.9060,-89.4290,1014.0,11111222 
NDBC,ioos:station:NOAA.NDBC:BURL1:1,2019-07-10T12:00:00Z,28.9060,-89.4290,1014.3,11111222 
NDBC,ioos:station:NOAA.NDBC:BURL1:1,2019-07-10T13:00:00Z,28.9060,-89.4290,1014.7,11111222 
NDBC,ioos:station:NOAA.NDBC:BURL1:1,2019-07-10T14:00:00Z,28.9060,-89.4290,1015.8,11111222 
NDBC,ioos:station:NOAA.NDBC:BURL1:1,2019-07-10T15:00:00Z,28.9060,-89.4290,1015.5,11111222 
NDBC,ioos:station:NOAA.NDBC:BURL1:1,2019-07-10T16:00:00Z,28.9060,-89.4290,1015.0,11111222 
NDBC,ioos:station:NOAA.NDBC:BURL1:1,2019-07-10T17:00:00Z,28.9060,-89.4290,1015.0,11111222 
NDBC,ioos:station:NOAA.NDBC:BURL1:1,2019-07-10T18:00:00Z,28.9060,-89.4290,1014.3,11111222 
NDBC,ioos:station:NOAA.NDBC:BURL1:1,2019-07-10T19:00:00Z,28.9060,-89.4290,1013.7,11111222 
NDBC,ioos:station:NOAA.NDBC:BURL1:1,2019-07-10T20:00:00Z,28.9060,-89.4290,1012.9,11111222 
NDBC,ioos:station:NOAA.NDBC:BURL1:1,2019-07-10T21:00:00Z,28.9060,-89.4290,1012.8,11111222 
NDBC,ioos:station:NOAA.NDBC:BURL1:1,2019-07-10T22:00:00Z,28.9060,-89.4290,1012.3,11111222 
NDBC,ioos:station:NOAA.NDBC:BURL1:1,2019-07-10T23:00:00Z,28.9060,-89.4290,1011.7,11111222 
NDBC,ioos:station:NOAA.NDBC:BURL1:1,2019-07-11T00:00:00Z,28.9060,-89.4290,1011.8,11111222 
NDBC,ioos:station:NOAA.NDBC:BURL1:1,2019-07-11T01:00:00Z,28.9060,-89.4290,1012.0,11111222 
NDBC,ioos:station:NOAA.NDBC:BURL1:1,2019-07-11T02:00:00Z,28.9060,-89.4290,1011.8,11111222 
NDBC,ioos:station:NOAA.NDBC:BURL1:1,2019-07-11T03:00:00Z,28.9060,-89.4290,1011.8,11111222 
NDBC,ioos:station:NOAA.NDBC:BURL1:1,2019-07-11T04:00:00Z,28.9060,-89.4290,1011.4,11111222 
NDBC,ioos:station:NOAA.NDBC:BURL1:1,2019-07-11T05:00:00Z,28.9060,-89.4290,1011.6,11111222 
NDBC,ioos:station:NOAA.NDBC:BURL1:1,2019-07-11T06:00:00Z,28.9060,-89.4290,1011.1,11111222 
NDBC,ioos:station:NOAA.NDBC:BURL1:1,2019-07-11T07:00:00Z,28.9060,-89.4290,1010.6,11111222 
NDBC,ioos:station:NOAA.NDBC:BURL1:1,2019-07-11T08:00:00Z,28.9060,-89.4290,1009.6,11111222 
NDBC,ioos:station:NOAA.NDBC:BURL1:1,2019-07-11T09:00:00Z,28.9060,-89.4290,1009.3,11111222 
NDBC,ioos:station:NOAA.NDBC:BURL1:1,2019-07-11T10:00:00Z,28.9060,-89.4290,1008.7,11111222 
NDBC,ioos:station:NOAA.NDBC:BURL1:1,2019-07-11T11:00:00Z,28.9060,-89.4290,1009.0,11111222 
NDBC,ioos:station:NOAA.NDBC:BURL1:1,2019-07-11T12:00:00Z,28.9060,-89.4290,1009.1,11111222 
NDBC,ioos:station:NOAA.NDBC:BURL1:1,2019-07-11T14:00:00Z,28.9060,-89.4290,1009.0,11111222 
NDBC,ioos:station:NOAA.NDBC:BURL1:1,2019-07-11T15:00:00Z,28.9060,-89.4290,1008.5,11111222 
NDBC,ioos:station:NOAA.NDBC:BURL1:1,2019-07-11T17:00:00Z,28.9060,-89.4290,1007.6,11111222 
NDBC,ioos:station:NOAA.NDBC:BURL1:1,2019-07-11T18:00:00Z,28.9060,-89.4290,1007.3,11111222 
NDBC,ioos:station:NOAA.NDBC:BURL1:1,2019-07-11T19:00:00Z,28.9060,-89.4290,1006.5,11111222 
NDBC,ioos:station:NOAA.NDBC:BURL1:1,2019-07-11T20:00:00Z,28.9060,-89.4290,1005.7,11111222 
NDBC,ioos:station:NOAA.NDBC:BURL1:1,2019-07-11T22:00:00Z,28.9060,-89.4290,1004.7,11111222 
NDBC,ioos:station:NOAA.NDBC:BURL1:1,2019-07-11T23:00:00Z,28.9060,-89.4290,1004.3,11111222 
NDBC,ioos:station:NOAA.NDBC:BURL1:1,2019-07-12T02:00:00Z,28.9060,-89.4290,1002.8,11111222 
NDBC,ioos:station:NOAA.NDBC:BURL1:1,2019-07-12T03:00:00Z,28.9060,-89.4290,1002.7,11111222 
NDBC,ioos:station:NOAA.NDBC:BURL1:1,2019-07-12T04:00:00Z,28.9060,-89.4290,1003.0,11111222 
NDBC,ioos:station:NOAA.NDBC:BURL1:1,2019-07-12T06:00:00Z,28.9060,-89.4290,1001.4,11111222 
NDBC,ioos:station:NOAA.NDBC:BURL1:1,2019-07-12T07:00:00Z,28.9060,-89.4290,1001.9,11111222 
NDBC,ioos:station:NOAA.NDBC:BURL1:1,2019-07-12T08:00:00Z,28.9060,-89.4290,1001.5,11111222 
NDBC,ioos:station:NOAA.NDBC:BURL1:1,2019-07-12T10:00:00Z,28.9060,-89.4290,1000.6,11111222 
NDBC,ioos:station:NOAA.NDBC:BURL1:1,2019-07-12T12:00:00Z,28.9060,-89.4290,1000.5,11111222 
NDBC,ioos:station:NOAA.NDBC:BURL1:1,2019-07-12T14:00:00Z,28.9060,-89.4290,1001.4,11111222 
NDBC,ioos:station:NOAA.NDBC:BURL1:1,2019-07-12T15:00:00Z,28.9060,-89.4290,1001.9,11111222 
NDBC,ioos:station:NOAA.NDBC:BURL1:1,2019-07-12T16:00:00Z,28.9060,-89.4290,1002.6,11111222 
NDBC,ioos:station:NOAA.NDBC:BURL1:1,2019-07-12T17:00:00Z,28.9060,-89.4290,1002.0,11111222 
NDBC,ioos:station:NOAA.NDBC:BURL1:1,2019-07-12T18:00:00Z,28.9060,-89.4290,1001.9,11111222 
NDBC,ioos:station:NOAA.NDBC:BURL1:1,2019-07-12T20:00:00Z,28.9060,-89.4290,1001.9,11111222 
NDBC,ioos:station:NOAA.NDBC:BURL1:1,2019-07-12T22:00:00Z,28.9060,-89.4290,1001.5,11111222 
NDBC,ioos:station:NOAA.NDBC:BURL1:1,2019-07-12T23:00:00Z,28.9060,-89.4290,1001.7,11111222 
NDBC,ioos:station:NOAA.NDBC:BURL1:1,2019-07-13T00:00:00Z,28.9060,-89.4290,1002.7,11111222 
NDBC,ioos:station:NOAA.NDBC:BURL1:1,2019-07-13T01:00:00Z,28.9060,-89.4290,1003.7,11111222 
NDBC,ioos:station:NOAA.NDBC:BURL1:1,2019-07-13T02:00:00Z,28.9060,-89.4290,1005.5,11111222 
NDBC,ioos:station:NOAA.NDBC:BURL1:1,2019-07-13T03:00:00Z,28.9060,-89.4290,1005.9,11111222 